Year,Month,Day,Hour,Minute,Value (Times are PST for temperature in C)
2014,07,14,00,00,21.00
2014,07,14,00,01,21.00
2014,07,14,00,02,21.00
2014,07,14,00,03,21.00
2014,07,14,00,04,21.00
2014,07,14,00,05,21.00
2014,07,14,00,06,21.00
2014,07,14,00,07,20.90
2014,07,14,00,08,20.90
2014,07,14,00,09,20.90
2014,07,14,00,10,20.90
2014,07,14,00,11,20.90
2014,07,14,00,12,20.90
2014,07,14,00,13,20.90
2014,07,14,00,14,20.90
2014,07,14,00,15,20.80
2014,07,14,00,16,20.80
2014,07,14,00,17,20.80
2014,07,14,00,18,20.80
2014,07,14,00,19,20.80
2014,07,14,00,20,20.80
2014,07,14,00,21,20.80
2014,07,14,00,22,20.70
2014,07,14,00,23,20.70
2014,07,14,00,24,20.70
2014,07,14,00,25,20.70
2014,07,14,00,26,20.70
2014,07,14,00,27,20.60
2014,07,14,00,28,20.60
2014,07,14,00,29,20.60
2014,07,14,00,30,20.60
2014,07,14,00,31,20.50
2014,07,14,00,32,20.50
2014,07,14,00,33,20.50
2014,07,14,00,34,20.50
2014,07,14,00,35,20.40
2014,07,14,00,36,20.40
2014,07,14,00,37,20.40
2014,07,14,00,38,20.40
2014,07,14,00,39,20.30
2014,07,14,00,40,20.30
2014,07,14,00,41,20.30
2014,07,14,00,42,20.20
2014,07,14,00,43,20.20
2014,07,14,00,44,20.10
2014,07,14,00,45,20.10
2014,07,14,00,46,20.10
2014,07,14,00,47,20.00
2014,07,14,00,48,20.00
2014,07,14,00,49,20.00
2014,07,14,00,50,20.00
2014,07,14,00,51,19.90
2014,07,14,00,52,19.90
2014,07,14,00,53,19.90
2014,07,14,00,54,19.90
2014,07,14,00,55,19.80
2014,07,14,00,56,19.80
2014,07,14,00,57,19.80
2014,07,14,00,58,19.80
2014,07,14,00,59,19.80
2014,07,14,01,00,19.70
2014,07,14,01,01,19.70
2014,07,14,01,02,19.70
2014,07,14,01,03,19.70
2014,07,14,01,04,19.60
2014,07,14,01,05,19.60
2014,07,14,01,06,19.60
2014,07,14,01,07,19.50
2014,07,14,01,08,19.50
2014,07,14,01,09,19.50
2014,07,14,01,10,19.40
2014,07,14,01,11,19.40
2014,07,14,01,12,19.40
2014,07,14,01,13,19.40
2014,07,14,01,14,19.40
2014,07,14,01,15,19.40
2014,07,14,01,16,19.40
2014,07,14,01,17,19.40
2014,07,14,01,18,19.40
2014,07,14,01,19,19.40
2014,07,14,01,20,19.40
2014,07,14,01,21,19.40
2014,07,14,01,22,19.40
2014,07,14,01,23,19.40
2014,07,14,01,24,19.40
2014,07,14,01,25,19.40
2014,07,14,01,26,19.40
2014,07,14,01,27,19.40
2014,07,14,01,28,19.40
2014,07,14,01,29,19.40
2014,07,14,01,30,19.40
2014,07,14,01,31,19.40
2014,07,14,01,32,19.40
2014,07,14,01,33,19.40
2014,07,14,01,34,19.40
2014,07,14,01,35,19.40
2014,07,14,01,36,19.40
2014,07,14,01,37,19.40
2014,07,14,01,38,19.40
2014,07,14,01,39,19.40
2014,07,14,01,40,19.40
2014,07,14,01,41,19.40
2014,07,14,01,42,19.40
2014,07,14,01,43,19.40
2014,07,14,01,44,19.40
2014,07,14,01,45,19.40
2014,07,14,01,46,19.40
2014,07,14,01,47,19.40
2014,07,14,01,48,19.40
2014,07,14,01,49,19.40
2014,07,14,01,50,19.40
2014,07,14,01,51,19.50
2014,07,14,01,52,19.50
2014,07,14,01,53,19.50
2014,07,14,01,54,19.50
2014,07,14,01,55,19.50
2014,07,14,01,56,19.50
2014,07,14,01,57,19.60
2014,07,14,01,58,19.60
2014,07,14,01,59,19.60
2014,07,14,02,00,19.60
2014,07,14,02,01,19.60
2014,07,14,02,02,19.60
2014,07,14,02,03,19.60
2014,07,14,02,04,19.60
2014,07,14,02,05,19.60
2014,07,14,02,06,19.60
2014,07,14,02,07,19.60
2014,07,14,02,08,19.60
2014,07,14,02,09,19.60
2014,07,14,02,10,19.50
2014,07,14,02,11,19.50
2014,07,14,02,12,19.50
2014,07,14,02,13,19.50
2014,07,14,02,14,19.50
2014,07,14,02,15,19.50
2014,07,14,02,16,19.40
2014,07,14,02,17,19.40
2014,07,14,02,18,19.40
2014,07,14,02,19,19.40
2014,07,14,02,20,19.40
2014,07,14,02,21,19.40
2014,07,14,02,22,19.40
2014,07,14,02,23,19.40
2014,07,14,02,24,19.40
2014,07,14,02,25,19.40
2014,07,14,02,26,19.40
2014,07,14,02,27,19.40
2014,07,14,02,28,19.40
2014,07,14,02,29,19.30
2014,07,14,02,30,19.30
2014,07,14,02,31,19.30
2014,07,14,02,32,19.30
2014,07,14,02,33,19.30
2014,07,14,02,34,19.30
2014,07,14,02,35,19.30
2014,07,14,02,36,19.30
2014,07,14,02,37,19.20
2014,07,14,02,38,19.20
2014,07,14,02,39,19.20
2014,07,14,02,40,19.20
2014,07,14,02,41,19.20
2014,07,14,02,42,19.10
2014,07,14,02,43,19.10
2014,07,14,02,44,19.10
2014,07,14,02,45,19.10
2014,07,14,02,46,19.10
2014,07,14,02,47,19.10
2014,07,14,02,48,19.10
2014,07,14,02,49,19.00
2014,07,14,02,50,19.00
2014,07,14,02,51,19.00
2014,07,14,02,52,18.90
2014,07,14,02,53,18.90
2014,07,14,02,54,18.90
2014,07,14,02,55,18.90
2014,07,14,02,56,18.90
2014,07,14,02,57,18.80
2014,07,14,02,58,18.80
2014,07,14,02,59,18.80
2014,07,14,03,00,18.80
2014,07,14,03,01,18.80
2014,07,14,03,02,18.70
2014,07,14,03,03,18.70
2014,07,14,03,04,18.70
2014,07,14,03,05,18.70
2014,07,14,03,06,18.70
2014,07,14,03,07,18.70
2014,07,14,03,08,18.60
2014,07,14,03,09,18.60
2014,07,14,03,10,18.60
2014,07,14,03,11,18.60
2014,07,14,03,12,18.50
2014,07,14,03,13,18.50
2014,07,14,03,14,18.40
2014,07,14,03,15,18.40
2014,07,14,03,16,18.30
2014,07,14,03,17,18.30
2014,07,14,03,18,18.30
2014,07,14,03,19,18.30
2014,07,14,03,20,18.20
2014,07,14,03,21,18.20
2014,07,14,03,22,18.20
2014,07,14,03,23,18.20
2014,07,14,03,24,18.10
2014,07,14,03,25,18.10
2014,07,14,03,26,18.10
2014,07,14,03,27,18.00
2014,07,14,03,28,18.00
2014,07,14,03,29,17.90
2014,07,14,03,30,17.90
2014,07,14,03,31,17.90
2014,07,14,03,32,17.80
2014,07,14,03,33,17.80
2014,07,14,03,34,17.80
2014,07,14,03,35,17.70
2014,07,14,03,36,17.70
2014,07,14,03,37,17.70
2014,07,14,03,38,17.70
2014,07,14,03,39,17.70
2014,07,14,03,40,17.70
2014,07,14,03,41,17.60
2014,07,14,03,42,17.60
2014,07,14,03,43,17.60
2014,07,14,03,44,17.60
2014,07,14,03,45,17.60
2014,07,14,03,46,17.60
2014,07,14,03,47,17.60
2014,07,14,03,48,17.50
2014,07,14,03,49,17.50
2014,07,14,03,50,17.50
2014,07,14,03,51,17.40
2014,07,14,03,52,17.40
2014,07,14,03,53,17.40
2014,07,14,03,54,17.30
2014,07,14,03,55,17.30
2014,07,14,03,56,17.30
2014,07,14,03,57,17.30
2014,07,14,03,58,17.30
2014,07,14,03,59,17.30
2014,07,14,04,00,17.20
2014,07,14,04,01,17.20
2014,07,14,04,02,17.20
2014,07,14,04,03,17.20
2014,07,14,04,04,17.10
2014,07,14,04,05,17.10
2014,07,14,04,06,17.10
2014,07,14,04,07,17.10
2014,07,14,04,08,17.10
2014,07,14,04,09,17.00
2014,07,14,04,10,17.00
2014,07,14,04,11,17.00
2014,07,14,04,12,17.00
2014,07,14,04,13,16.90
2014,07,14,04,14,16.90
2014,07,14,04,15,16.90
2014,07,14,04,16,16.90
2014,07,14,04,17,16.90
2014,07,14,04,18,16.80
2014,07,14,04,19,16.80
2014,07,14,04,20,16.80
2014,07,14,04,21,16.80
2014,07,14,04,22,16.80
2014,07,14,04,23,16.80
2014,07,14,04,24,16.70
2014,07,14,04,25,16.70
2014,07,14,04,26,16.70
2014,07,14,04,27,16.70
2014,07,14,04,28,16.70
2014,07,14,04,29,16.60
2014,07,14,04,30,16.60
2014,07,14,04,31,16.60
2014,07,14,04,32,16.60
2014,07,14,04,33,16.60
2014,07,14,04,34,16.60
2014,07,14,04,35,16.50
2014,07,14,04,36,16.50
2014,07,14,04,37,16.50
2014,07,14,04,38,16.50
2014,07,14,04,39,16.40
2014,07,14,04,40,16.40
2014,07,14,04,41,16.40
2014,07,14,04,42,16.40
2014,07,14,04,43,16.40
2014,07,14,04,44,16.40
2014,07,14,04,45,16.40
2014,07,14,04,46,16.30
2014,07,14,04,47,16.30
2014,07,14,04,48,16.30
2014,07,14,04,49,16.30
2014,07,14,04,50,16.30
2014,07,14,04,51,16.30
2014,07,14,04,52,16.20
2014,07,14,04,53,16.20
2014,07,14,04,54,16.20
2014,07,14,04,55,16.20
2014,07,14,04,56,16.20
2014,07,14,04,57,16.20
2014,07,14,04,58,16.20
2014,07,14,04,59,16.10
2014,07,14,05,00,16.10
2014,07,14,05,01,16.10
2014,07,14,05,02,16.10
2014,07,14,05,03,16.10
2014,07,14,05,04,16.00
2014,07,14,05,05,16.00
2014,07,14,05,06,16.00
2014,07,14,05,07,16.00
2014,07,14,05,08,15.90
2014,07,14,05,09,15.90
2014,07,14,05,10,15.90
2014,07,14,05,11,15.90
2014,07,14,05,12,15.90
2014,07,14,05,13,15.90
2014,07,14,05,14,15.90
2014,07,14,05,15,15.90
2014,07,14,05,16,15.90
2014,07,14,05,17,15.90
2014,07,14,05,18,15.90
2014,07,14,05,19,15.90
2014,07,14,05,20,15.80
2014,07,14,05,21,15.80
2014,07,14,05,22,15.80
2014,07,14,05,23,15.80
2014,07,14,05,24,15.80
2014,07,14,05,25,15.70
2014,07,14,05,26,15.70
2014,07,14,05,27,15.70
2014,07,14,05,28,15.70
2014,07,14,05,29,15.70
2014,07,14,05,30,15.60
2014,07,14,05,31,15.60
2014,07,14,05,32,15.60
2014,07,14,05,33,15.60
2014,07,14,05,34,15.60
2014,07,14,05,35,15.60
2014,07,14,05,36,15.50
2014,07,14,05,37,15.50
2014,07,14,05,38,15.50
2014,07,14,05,39,15.50
2014,07,14,05,40,15.40
2014,07,14,05,41,15.40
2014,07,14,05,42,15.40
2014,07,14,05,43,15.40
2014,07,14,05,44,15.40
2014,07,14,05,45,15.30
2014,07,14,05,46,15.30
2014,07,14,05,47,15.30
2014,07,14,05,48,15.30
2014,07,14,05,49,15.30
2014,07,14,05,50,15.20
2014,07,14,05,51,15.20
2014,07,14,05,52,15.20
2014,07,14,05,53,15.20
2014,07,14,05,54,15.10
2014,07,14,05,55,15.10
2014,07,14,05,56,15.00
2014,07,14,05,57,15.00
2014,07,14,05,58,15.00
2014,07,14,05,59,15.00
2014,07,14,06,00,15.00
2014,07,14,06,01,15.00
2014,07,14,06,02,15.00
2014,07,14,06,03,15.00
2014,07,14,06,04,15.00
2014,07,14,06,05,15.00
2014,07,14,06,06,15.00
2014,07,14,06,07,15.00
2014,07,14,06,08,15.00
2014,07,14,06,09,15.00
2014,07,14,06,10,15.00
2014,07,14,06,11,15.00
2014,07,14,06,12,15.00
2014,07,14,06,13,15.00
2014,07,14,06,14,15.00
2014,07,14,06,15,15.00
2014,07,14,06,16,15.00
2014,07,14,06,17,15.00
2014,07,14,06,18,15.00
2014,07,14,06,19,15.00
2014,07,14,06,20,15.00
2014,07,14,06,21,15.00
2014,07,14,06,22,15.00
2014,07,14,06,23,15.00
2014,07,14,06,24,15.00
2014,07,14,06,25,15.00
2014,07,14,06,26,15.00
2014,07,14,06,27,15.00
2014,07,14,06,28,15.00
2014,07,14,06,29,15.00
2014,07,14,06,30,15.00
2014,07,14,06,31,15.00
2014,07,14,06,32,15.00
2014,07,14,06,33,15.00
2014,07,14,06,34,15.00
2014,07,14,06,35,15.00
2014,07,14,06,36,15.10
2014,07,14,06,37,15.10
2014,07,14,06,38,15.10
2014,07,14,06,39,15.20
2014,07,14,06,40,15.20
2014,07,14,06,41,15.20
2014,07,14,06,42,15.20
2014,07,14,06,43,15.30
2014,07,14,06,44,15.30
2014,07,14,06,45,15.30
2014,07,14,06,46,15.30
2014,07,14,06,47,15.40
2014,07,14,06,48,15.40
2014,07,14,06,49,15.40
2014,07,14,06,50,15.50
2014,07,14,06,51,15.50
2014,07,14,06,52,15.50
2014,07,14,06,53,15.60
2014,07,14,06,54,15.60
2014,07,14,06,55,15.60
2014,07,14,06,56,15.70
2014,07,14,06,57,15.70
2014,07,14,06,58,15.70
2014,07,14,06,59,15.70
2014,07,14,07,00,15.80
2014,07,14,07,01,15.80
2014,07,14,07,02,15.80
2014,07,14,07,03,15.80
2014,07,14,07,04,15.90
2014,07,14,07,05,15.90
2014,07,14,07,06,16.00
2014,07,14,07,07,16.00
2014,07,14,07,08,16.10
2014,07,14,07,09,16.10
2014,07,14,07,10,16.20
2014,07,14,07,11,16.20
2014,07,14,07,12,16.20
2014,07,14,07,13,16.30
2014,07,14,07,14,16.30
2014,07,14,07,15,16.40
2014,07,14,07,16,16.40
2014,07,14,07,17,16.50
2014,07,14,07,18,16.60
2014,07,14,07,19,16.60
2014,07,14,07,20,16.70
2014,07,14,07,21,16.70
2014,07,14,07,22,16.80
2014,07,14,07,23,16.90
2014,07,14,07,24,17.00
2014,07,14,07,25,17.00
2014,07,14,07,26,17.10
2014,07,14,07,27,17.20
2014,07,14,07,28,17.30
2014,07,14,07,29,17.40
2014,07,14,07,30,17.50
2014,07,14,07,31,17.70
2014,07,14,07,32,17.80
2014,07,14,07,33,17.90
2014,07,14,07,34,18.10
2014,07,14,07,35,18.20
2014,07,14,07,36,18.40
2014,07,14,07,37,18.50
2014,07,14,07,38,18.70
2014,07,14,07,39,18.90
2014,07,14,07,40,19.10
2014,07,14,07,41,19.30
2014,07,14,07,42,19.40
2014,07,14,07,43,19.60
2014,07,14,07,44,19.70
2014,07,14,07,45,19.90
2014,07,14,07,46,20.00
2014,07,14,07,47,20.20
2014,07,14,07,48,20.30
2014,07,14,07,49,20.40
2014,07,14,07,50,20.60
2014,07,14,07,51,20.70
2014,07,14,07,52,20.80
2014,07,14,07,53,20.90
2014,07,14,07,54,21.10
2014,07,14,07,55,21.20
2014,07,14,07,56,21.30
2014,07,14,07,57,21.30
2014,07,14,07,58,21.30
2014,07,14,07,59,21.40
2014,07,14,08,00,21.40
2014,07,14,08,01,21.40
2014,07,14,08,02,21.40
2014,07,14,08,03,21.40
2014,07,14,08,04,21.50
2014,07,14,08,05,21.50
2014,07,14,08,06,21.60
2014,07,14,08,07,21.70
2014,07,14,08,08,21.80
2014,07,14,08,09,21.90
2014,07,14,08,10,22.10
2014,07,14,08,11,22.20
2014,07,14,08,12,22.30
2014,07,14,08,13,22.50
2014,07,14,08,14,22.60
2014,07,14,08,15,22.70
2014,07,14,08,16,22.80
2014,07,14,08,17,22.90
2014,07,14,08,18,23.00
2014,07,14,08,19,23.10
2014,07,14,08,20,23.20
2014,07,14,08,21,23.30
2014,07,14,08,22,23.30
2014,07,14,08,23,23.50
2014,07,14,08,24,23.50
2014,07,14,08,25,23.60
2014,07,14,08,26,23.70
2014,07,14,08,27,23.80
2014,07,14,08,28,24.00
2014,07,14,08,29,24.10
2014,07,14,08,30,24.20
2014,07,14,08,31,24.30
2014,07,14,08,32,24.40
2014,07,14,08,33,24.50
2014,07,14,08,34,24.60
2014,07,14,08,35,24.70
2014,07,14,08,36,24.90
2014,07,14,08,37,25.00
2014,07,14,08,38,25.10
2014,07,14,08,39,25.20
2014,07,14,08,40,25.20
2014,07,14,08,41,25.20
2014,07,14,08,42,25.10
2014,07,14,08,43,25.10
2014,07,14,08,44,25.10
2014,07,14,08,45,25.20
2014,07,14,08,46,25.20
2014,07,14,08,47,25.20
2014,07,14,08,48,25.10
2014,07,14,08,49,25.00
2014,07,14,08,50,24.90
2014,07,14,08,51,24.90
2014,07,14,08,52,24.90
2014,07,14,08,53,24.90
2014,07,14,08,54,25.00
2014,07,14,08,55,25.00
2014,07,14,08,56,25.00
2014,07,14,08,57,25.00
2014,07,14,08,58,25.00
2014,07,14,08,59,25.00
2014,07,14,09,00,25.00
2014,07,14,09,01,25.00
2014,07,14,09,02,25.10
2014,07,14,09,03,25.00
2014,07,14,09,04,25.00
2014,07,14,09,05,25.00
2014,07,14,09,06,25.00
2014,07,14,09,07,25.10
2014,07,14,09,08,25.20
2014,07,14,09,09,25.20
2014,07,14,09,10,25.10
2014,07,14,09,11,25.10
2014,07,14,09,12,25.20
2014,07,14,09,13,25.30
2014,07,14,09,14,25.30
2014,07,14,09,15,25.30
2014,07,14,09,16,25.30
2014,07,14,09,17,25.30
2014,07,14,09,18,25.30
2014,07,14,09,19,25.30
2014,07,14,09,20,25.20
2014,07,14,09,21,25.20
2014,07,14,09,22,25.20
2014,07,14,09,23,25.20
2014,07,14,09,24,25.20
2014,07,14,09,25,25.20
2014,07,14,09,26,25.20
2014,07,14,09,27,25.20
2014,07,14,09,28,25.20
2014,07,14,09,29,25.10
2014,07,14,09,30,25.10
2014,07,14,09,31,25.00
2014,07,14,09,32,25.00
2014,07,14,09,33,24.90
2014,07,14,09,34,24.70
2014,07,14,09,35,24.50
2014,07,14,09,36,24.40
2014,07,14,09,37,24.30
2014,07,14,09,38,24.20
2014,07,14,09,39,24.10
2014,07,14,09,40,24.00
2014,07,14,09,41,23.90
2014,07,14,09,42,23.80
2014,07,14,09,43,23.70
2014,07,14,09,44,23.80
2014,07,14,09,45,23.70
2014,07,14,09,46,23.70
2014,07,14,09,47,23.70
2014,07,14,09,48,23.70
2014,07,14,09,49,23.60
2014,07,14,09,50,23.60
2014,07,14,09,51,23.60
2014,07,14,09,52,23.70
2014,07,14,09,53,23.80
2014,07,14,09,54,23.90
2014,07,14,09,55,24.10
2014,07,14,09,56,24.20
2014,07,14,09,57,24.30
2014,07,14,09,58,24.50
2014,07,14,09,59,24.50
2014,07,14,10,00,24.50
2014,07,14,10,01,24.60
2014,07,14,10,02,24.60
2014,07,14,10,03,24.50
2014,07,14,10,04,24.50
2014,07,14,10,05,24.50
2014,07,14,10,06,24.50
2014,07,14,10,07,24.60
2014,07,14,10,08,24.70
2014,07,14,10,09,24.70
2014,07,14,10,10,24.70
2014,07,14,10,11,24.70
2014,07,14,10,12,24.80
2014,07,14,10,13,24.80
2014,07,14,10,14,24.80
2014,07,14,10,15,24.80
2014,07,14,10,16,24.80
2014,07,14,10,17,24.80
2014,07,14,10,18,24.90
2014,07,14,10,19,25.00
2014,07,14,10,20,25.20
2014,07,14,10,21,25.30
2014,07,14,10,22,25.30
2014,07,14,10,23,25.30
2014,07,14,10,24,25.40
2014,07,14,10,25,25.60
2014,07,14,10,26,25.70
2014,07,14,10,27,25.70
2014,07,14,10,28,25.70
2014,07,14,10,29,25.80
2014,07,14,10,30,25.90
2014,07,14,10,31,25.90
2014,07,14,10,32,26.00
2014,07,14,10,33,26.10
2014,07,14,10,34,26.20
2014,07,14,10,35,26.00
2014,07,14,10,36,25.90
2014,07,14,10,37,25.80
2014,07,14,10,38,25.80
2014,07,14,10,39,25.80
2014,07,14,10,40,25.80
2014,07,14,10,41,25.80
2014,07,14,10,42,25.70
2014,07,14,10,43,25.60
2014,07,14,10,44,25.60
2014,07,14,10,45,25.60
2014,07,14,10,46,25.60
2014,07,14,10,47,25.60
2014,07,14,10,48,25.60
2014,07,14,10,49,25.60
2014,07,14,10,50,25.70
2014,07,14,10,51,25.60
2014,07,14,10,52,25.70
2014,07,14,10,53,25.70
2014,07,14,10,54,25.80
2014,07,14,10,55,25.80
2014,07,14,10,56,25.90
2014,07,14,10,57,25.90
2014,07,14,10,58,26.00
2014,07,14,10,59,26.00
2014,07,14,11,00,25.90
2014,07,14,11,01,25.70
2014,07,14,11,02,25.50
2014,07,14,11,03,25.40
2014,07,14,11,04,25.40
2014,07,14,11,05,25.30
2014,07,14,11,06,25.30
2014,07,14,11,07,25.40
2014,07,14,11,08,25.40
2014,07,14,11,09,25.40
2014,07,14,11,10,25.50
2014,07,14,11,11,25.60
2014,07,14,11,12,25.70
2014,07,14,11,13,25.70
2014,07,14,11,14,25.80
2014,07,14,11,15,25.90
2014,07,14,11,16,25.90
2014,07,14,11,17,25.90
2014,07,14,11,18,25.90
2014,07,14,11,19,26.00
2014,07,14,11,20,26.10
2014,07,14,11,21,26.20
2014,07,14,11,22,26.20
2014,07,14,11,23,26.20
2014,07,14,11,24,26.30
2014,07,14,11,25,26.30
2014,07,14,11,26,26.40
2014,07,14,11,27,26.50
2014,07,14,11,28,26.60
2014,07,14,11,29,26.70
2014,07,14,11,30,26.70
2014,07,14,11,31,26.70
2014,07,14,11,32,26.70
2014,07,14,11,33,26.70
2014,07,14,11,34,26.70
2014,07,14,11,35,26.70
2014,07,14,11,36,26.70
2014,07,14,11,37,26.80
2014,07,14,11,38,26.90
2014,07,14,11,39,26.90
2014,07,14,11,40,26.90
2014,07,14,11,41,26.90
2014,07,14,11,42,26.80
2014,07,14,11,43,26.70
2014,07,14,11,44,26.70
2014,07,14,11,45,26.70
2014,07,14,11,46,26.80
2014,07,14,11,47,26.80
2014,07,14,11,48,26.90
2014,07,14,11,49,26.90
2014,07,14,11,50,27.00
2014,07,14,11,51,27.00
2014,07,14,11,52,27.00
2014,07,14,11,53,27.10
2014,07,14,11,54,27.10
2014,07,14,11,55,27.10
2014,07,14,11,56,27.20
2014,07,14,11,57,27.20
2014,07,14,11,58,27.20
2014,07,14,11,59,27.30
2014,07,14,12,00,27.30
2014,07,14,12,01,27.50
2014,07,14,12,02,27.60
2014,07,14,12,03,27.70
2014,07,14,12,04,27.90
2014,07,14,12,05,28.00
2014,07,14,12,06,28.10
2014,07,14,12,07,27.90
2014,07,14,12,08,27.80
2014,07,14,12,09,27.80
2014,07,14,12,10,27.80
2014,07,14,12,11,27.80
2014,07,14,12,12,27.80
2014,07,14,12,13,27.80
2014,07,14,12,14,27.90
2014,07,14,12,15,27.90
2014,07,14,12,16,27.90
2014,07,14,12,17,28.00
2014,07,14,12,18,28.10
2014,07,14,12,19,28.10
2014,07,14,12,20,28.10
2014,07,14,12,21,28.00
2014,07,14,12,22,28.00
2014,07,14,12,23,28.00
2014,07,14,12,24,28.00
2014,07,14,12,25,28.00
2014,07,14,12,26,27.90
2014,07,14,12,27,27.90
2014,07,14,12,28,27.90
2014,07,14,12,29,27.90
2014,07,14,12,30,27.90
2014,07,14,12,31,27.90
2014,07,14,12,32,27.80
2014,07,14,12,33,27.50
2014,07,14,12,34,27.40
2014,07,14,12,35,27.30
2014,07,14,12,36,27.20
2014,07,14,12,37,27.20
2014,07,14,12,38,27.10
2014,07,14,12,39,27.00
2014,07,14,12,40,26.90
2014,07,14,12,41,26.80
2014,07,14,12,42,26.80
2014,07,14,12,43,26.90
2014,07,14,12,44,26.90
2014,07,14,12,45,26.90
2014,07,14,12,46,26.80
2014,07,14,12,47,26.70
2014,07,14,12,48,26.60
2014,07,14,12,49,26.40
2014,07,14,12,50,26.40
2014,07,14,12,51,26.30
2014,07,14,12,52,26.20
2014,07,14,12,53,26.20
2014,07,14,12,54,26.20
2014,07,14,12,55,26.30
2014,07,14,12,56,26.30
2014,07,14,12,57,26.30
2014,07,14,12,58,26.30
2014,07,14,12,59,26.10
2014,07,14,13,00,25.90
2014,07,14,13,01,25.80
2014,07,14,13,02,25.70
2014,07,14,13,03,25.70
2014,07,14,13,04,25.60
2014,07,14,13,05,25.60
2014,07,14,13,06,25.40
2014,07,14,13,07,25.30
2014,07,14,13,08,25.20
2014,07,14,13,09,25.20
2014,07,14,13,10,25.20
2014,07,14,13,11,25.30
2014,07,14,13,12,25.30
2014,07,14,13,13,25.40
2014,07,14,13,14,25.50
2014,07,14,13,15,25.60
2014,07,14,13,16,25.60
2014,07,14,13,17,25.60
2014,07,14,13,18,25.60
2014,07,14,13,19,25.50
2014,07,14,13,20,25.40
2014,07,14,13,21,25.40
2014,07,14,13,22,25.50
2014,07,14,13,23,25.60
2014,07,14,13,24,25.80
2014,07,14,13,25,25.90
2014,07,14,13,26,25.90
2014,07,14,13,27,26.10
2014,07,14,13,28,26.20
2014,07,14,13,29,26.30
2014,07,14,13,30,26.50
2014,07,14,13,31,26.60
2014,07,14,13,32,26.60
2014,07,14,13,33,26.60
2014,07,14,13,34,26.60
2014,07,14,13,35,26.50
2014,07,14,13,36,26.40
2014,07,14,13,37,26.30
2014,07,14,13,38,26.30
2014,07,14,13,39,26.20
2014,07,14,13,40,26.20
2014,07,14,13,41,26.20
2014,07,14,13,42,26.20
2014,07,14,13,43,26.20
2014,07,14,13,44,26.20
2014,07,14,13,45,26.30
2014,07,14,13,46,26.30
2014,07,14,13,47,26.40
2014,07,14,13,48,26.50
2014,07,14,13,49,26.60
2014,07,14,13,50,26.80
2014,07,14,13,51,26.90
2014,07,14,13,52,27.10
2014,07,14,13,53,27.20
2014,07,14,13,54,27.30
2014,07,14,13,55,27.20
2014,07,14,13,56,27.30
2014,07,14,13,57,27.30
2014,07,14,13,58,27.40
2014,07,14,13,59,27.40
2014,07,14,14,00,27.50
2014,07,14,14,01,27.60
2014,07,14,14,02,27.70
2014,07,14,14,03,27.80
2014,07,14,14,04,27.90
2014,07,14,14,05,27.90
2014,07,14,14,06,27.90
2014,07,14,14,07,28.00
2014,07,14,14,08,28.00
2014,07,14,14,09,27.90
2014,07,14,14,10,27.80
2014,07,14,14,11,27.70
2014,07,14,14,12,27.70
2014,07,14,14,13,27.60
2014,07,14,14,14,27.50
2014,07,14,14,15,27.40
2014,07,14,14,16,27.30
2014,07,14,14,17,27.20
2014,07,14,14,18,27.20
2014,07,14,14,19,27.10
2014,07,14,14,20,27.20
2014,07,14,14,21,27.20
2014,07,14,14,22,27.30
2014,07,14,14,23,27.30
2014,07,14,14,24,27.40
2014,07,14,14,25,27.40
2014,07,14,14,26,27.30
2014,07,14,14,27,27.30
2014,07,14,14,28,27.30
2014,07,14,14,29,27.30
2014,07,14,14,30,27.20
2014,07,14,14,31,27.20
2014,07,14,14,32,27.30
2014,07,14,14,33,27.30
2014,07,14,14,34,27.50
2014,07,14,14,35,27.50
2014,07,14,14,36,27.60
2014,07,14,14,37,27.80
2014,07,14,14,38,27.90
2014,07,14,14,39,28.00
2014,07,14,14,40,28.10
2014,07,14,14,41,28.20
2014,07,14,14,42,28.30
2014,07,14,14,43,28.30
2014,07,14,14,44,28.30
2014,07,14,14,45,28.30
2014,07,14,14,46,28.20
2014,07,14,14,47,28.10
2014,07,14,14,48,28.00
2014,07,14,14,49,27.80
2014,07,14,14,50,27.80
2014,07,14,14,51,27.80
2014,07,14,14,52,27.70
2014,07,14,14,53,27.60
2014,07,14,14,54,27.60
2014,07,14,14,55,27.60
2014,07,14,14,56,27.60
2014,07,14,14,57,27.50
2014,07,14,14,58,27.60
2014,07,14,14,59,27.60
2014,07,14,15,00,27.50
2014,07,14,15,01,27.40
2014,07,14,15,02,27.40
2014,07,14,15,03,27.30
2014,07,14,15,04,27.30
2014,07,14,15,05,27.40
2014,07,14,15,06,27.60
2014,07,14,15,07,27.70
2014,07,14,15,08,27.90
2014,07,14,15,09,27.90
2014,07,14,15,10,28.00
2014,07,14,15,11,28.10
2014,07,14,15,12,28.10
2014,07,14,15,13,28.20
2014,07,14,15,14,28.30
2014,07,14,15,15,28.40
2014,07,14,15,16,28.60
2014,07,14,15,17,28.60
2014,07,14,15,18,28.70
2014,07,14,15,19,28.60
2014,07,14,15,20,28.50
2014,07,14,15,21,28.40
2014,07,14,15,22,28.40
2014,07,14,15,23,28.40
2014,07,14,15,24,28.50
2014,07,14,15,25,28.40
2014,07,14,15,26,28.40
2014,07,14,15,27,28.20
2014,07,14,15,28,28.20
2014,07,14,15,29,28.10
2014,07,14,15,30,28.20
2014,07,14,15,31,28.20
2014,07,14,15,32,28.20
2014,07,14,15,33,28.30
2014,07,14,15,34,28.30
2014,07,14,15,35,28.30
2014,07,14,15,36,28.30
2014,07,14,15,37,28.20
2014,07,14,15,38,28.10
2014,07,14,15,39,28.00
2014,07,14,15,40,28.00
2014,07,14,15,41,28.00
2014,07,14,15,42,28.10
2014,07,14,15,43,28.20
2014,07,14,15,44,28.20
2014,07,14,15,45,28.20
2014,07,14,15,46,28.10
2014,07,14,15,47,28.10
2014,07,14,15,48,28.10
2014,07,14,15,49,28.20
2014,07,14,15,50,28.20
2014,07,14,15,51,28.20
2014,07,14,15,52,28.20
2014,07,14,15,53,28.30
2014,07,14,15,54,28.30
2014,07,14,15,55,28.30
2014,07,14,15,56,28.20
2014,07,14,15,57,28.10
2014,07,14,15,58,28.00
2014,07,14,15,59,28.00
2014,07,14,16,00,28.00
2014,07,14,16,01,28.00
2014,07,14,16,02,28.10
2014,07,14,16,03,28.10
2014,07,14,16,04,28.10
2014,07,14,16,05,28.10
2014,07,14,16,06,28.10
2014,07,14,16,07,28.00
2014,07,14,16,08,27.90
2014,07,14,16,09,27.90
2014,07,14,16,10,27.80
2014,07,14,16,11,27.70
2014,07,14,16,12,27.70
2014,07,14,16,13,27.60
2014,07,14,16,14,27.60
2014,07,14,16,15,27.60
2014,07,14,16,16,27.70
2014,07,14,16,17,27.70
2014,07,14,16,18,27.70
2014,07,14,16,19,27.70
2014,07,14,16,20,27.70
2014,07,14,16,21,27.80
2014,07,14,16,22,27.70
2014,07,14,16,23,27.70
2014,07,14,16,24,27.60
2014,07,14,16,25,27.50
2014,07,14,16,26,27.40
2014,07,14,16,27,27.40
2014,07,14,16,28,27.50
2014,07,14,16,29,27.60
2014,07,14,16,30,27.60
2014,07,14,16,31,27.60
2014,07,14,16,32,27.70
2014,07,14,16,33,27.60
2014,07,14,16,34,27.60
2014,07,14,16,35,27.60
2014,07,14,16,36,27.70
2014,07,14,16,37,27.70
2014,07,14,16,38,27.70
2014,07,14,16,39,27.80
2014,07,14,16,40,27.80
2014,07,14,16,41,27.80
2014,07,14,16,42,27.90
2014,07,14,16,43,28.00
2014,07,14,16,44,28.00
2014,07,14,16,45,28.10
2014,07,14,16,46,28.10
2014,07,14,16,47,28.10
2014,07,14,16,48,28.20
2014,07,14,16,49,28.20
2014,07,14,16,50,28.30
2014,07,14,16,51,28.40
2014,07,14,16,52,28.50
2014,07,14,16,53,28.50
2014,07,14,16,54,28.60
2014,07,14,16,55,28.60
2014,07,14,16,56,28.70
2014,07,14,16,57,28.70
2014,07,14,16,58,28.70
2014,07,14,16,59,28.70
2014,07,14,17,00,28.70
2014,07,14,17,01,28.80
2014,07,14,17,02,28.80
2014,07,14,17,03,28.80
2014,07,14,17,04,28.80
2014,07,14,17,05,28.80
2014,07,14,17,06,28.80
2014,07,14,17,07,28.90
2014,07,14,17,08,28.90
2014,07,14,17,09,29.00
2014,07,14,17,10,29.00
2014,07,14,17,11,29.10
2014,07,14,17,12,29.10
2014,07,14,17,13,29.20
2014,07,14,17,14,29.20
2014,07,14,17,15,29.20
2014,07,14,17,16,29.20
2014,07,14,17,17,29.30
2014,07,14,17,18,29.30
2014,07,14,17,19,29.30